�������l�o���
Date,Time,MP-1(��Sv/h),MP-2(��Sv/h),MP-3(��Sv/h),MP-4(��Sv/h),MP-5(��Sv/h),MP-6(��Sv/h),MP-7(��Sv/h),MP-8(��Sv/h),����,����(m/s),���J
2022/09/05,00:00,0.593,0.830,0.525,1.017,0.724,0.336,0.590,0.556,���쓌,0.9,�L
2022/09/05,00:10,0.593,0.829,0.525,1.017,0.722,0.338,0.590,0.553,��쓌,0.8,�L
2022/09/05,00:20,0.593,0.828,0.525,1.016,0.721,0.337,0.591,0.555,�쓌,0.6,��
2022/09/05,00:30,0.594,0.828,0.526,1.013,0.721,0.337,0.590,0.554,��쓌,0.9,��
2022/09/05,00:40,0.593,0.828,0.525,1.017,0.722,0.337,0.592,0.554,��쓌,0.9,��
2022/09/05,00:50,0.594,0.827,0.525,1.017,0.723,0.338,0.591,0.553,-,CALM,��
2022/09/05,01:00,0.593,0.830,0.526,1.017,0.722,0.339,0.589,0.555,��쓌,1.1,��
2022/09/05,01:10,0.593,0.829,0.526,1.016,0.723,0.337,0.590,0.553,��쓌,0.9,�L
2022/09/05,01:20,0.593,0.829,0.525,1.015,0.722,0.336,0.592,0.554,��쓌,1.5,��
2022/09/05,01:30,0.593,0.829,0.526,1.017,0.723,0.337,0.589,0.554,��쓌,1.4,��
2022/09/05,01:40,0.593,0.830,0.526,1.016,0.723,0.336,0.591,0.554,��,1.5,��
2022/09/05,01:50,0.593,0.829,0.525,1.015,0.724,0.337,0.590,0.553,��,2.0,��
2022/09/05,02:00,0.594,0.828,0.525,1.015,0.722,0.338,0.589,0.554,��,1.7,��
2022/09/05,02:10,0.594,0.830,0.524,1.019,0.723,0.337,0.590,0.554,��,1.9,��
2022/09/05,02:20,0.595,0.827,0.525,1.016,0.722,0.336,0.589,0.555,��쓌,1.2,��
2022/09/05,02:30,0.594,0.831,0.525,1.018,0.723,0.337,0.590,0.554,��쓌,1.1,��
2022/09/05,02:40,0.595,0.830,0.525,1.016,0.722,0.336,0.591,0.554,��,1.7,��
2022/09/05,02:50,0.593,0.831,0.526,1.017,0.724,0.336,0.589,0.553,��쐼,1.2,��
2022/09/05,03:00,0.592,0.830,0.525,1.015,0.723,0.337,0.590,0.553,��,0.9,��
2022/09/05,03:10,0.594,0.828,0.526,1.015,0.724,0.336,0.590,0.552,��,1.2,��
2022/09/05,03:20,0.594,0.830,0.523,1.016,0.723,0.338,0.590,0.555,��쐼,0.9,��
2022/09/05,03:30,0.592,0.830,0.524,1.017,0.723,0.336,0.590,0.552,��쐼,1.2,��
2022/09/05,03:40,0.594,0.830,0.526,1.018,0.722,0.337,0.590,0.553,��쐼,1.9,��
2022/09/05,03:50,0.595,0.830,0.524,1.016,0.723,0.336,0.591,0.554,��,1.7,��
2022/09/05,04:00,0.594,0.830,0.525,1.016,0.723,0.336,0.591,0.554,��,2.0,��
2022/09/05,04:10,0.595,0.830,0.527,1.014,0.722,0.337,0.591,0.554,��,2.3,��
2022/09/05,04:20,0.593,0.830,0.525,1.017,0.723,0.336,0.591,0.553,��,1.7,��
2022/09/05,04:30,0.596,0.830,0.526,1.017,0.721,0.336,0.591,0.555,��,1.9,��
2022/09/05,04:40,0.594,0.830,0.526,1.015,0.724,0.337,0.590,0.555,��,2.0,��
2022/09/05,04:50,0.591,0.830,0.525,1.020,0.724,0.337,0.589,0.552,��,1.7,��
2022/09/05,05:00,0.594,0.830,0.526,1.016,0.724,0.336,0.591,0.553,��쐼,0.9,��
2022/09/05,05:10,0.593,0.829,0.525,1.017,0.723,0.337,0.589,0.554,��,0.9,��
2022/09/05,05:20,0.593,0.831,0.525,1.015,0.723,0.338,0.591,0.554,��쐼,0.6,��
2022/09/05,05:30,0.594,0.829,0.526,1.016,0.725,0.335,0.589,0.554,-,CALM,��
2022/09/05,05:40,0.594,0.831,0.525,1.015,0.724,0.338,0.590,0.553,��쐼,0.8,��
2022/09/05,05:50,0.593,0.829,0.526,1.017,0.723,0.337,0.589,0.554,-,CALM,��
2022/09/05,06:00,0.595,0.829,0.527,1.017,0.725,0.337,0.589,0.556,��쓌,0.6,��
2022/09/05,06:10,0.595,0.829,0.527,1.014,0.722,0.337,0.590,0.554,��쐼,2.0,��
2022/09/05,06:20,0.595,0.830,0.527,1.015,0.724,0.339,0.589,0.553,��쐼,2.8,��
2022/09/05,06:30,0.594,0.829,0.525,1.017,0.725,0.337,0.590,0.554,��,2.6,��
2022/09/05,06:40,0.594,0.830,0.526,1.015,0.723,0.336,0.588,0.554,��,2.6,��
2022/09/05,06:50,0.594,0.831,0.526,1.016,0.723,0.337,0.591,0.553,��,2.8,��
2022/09/05,07:00,0.593,0.830,0.523,1.018,0.725,0.336,0.589,0.554,��,3.2,��
2022/09/05,07:10,0.594,0.828,0.526,1.014,0.724,0.337,0.589,0.553,��,2.8,��
2022/09/05,07:20,0.593,0.831,0.525,1.019,0.722,0.335,0.590,0.553,��,3.0,��
2022/09/05,07:30,0.593,0.830,0.527,1.017,0.723,0.336,0.588,0.553,��,2.6,��
2022/09/05,07:40,0.593,0.827,0.525,1.016,0.723,0.337,0.588,0.554,��,2.2,��
2022/09/05,07:50,0.593,0.832,0.524,1.016,0.723,0.335,0.588,0.553,��,2.8,��
2022/09/05,08:00,0.594,0.827,0.525,1.017,0.725,0.335,0.587,0.553,��,3.0,��
2022/09/05,08:10,0.594,0.828,0.526,1.017,0.723,0.336,0.589,0.552,��쓌,2.8,��
2022/09/05,08:20,0.594,0.829,0.527,1.017,0.722,0.335,0.589,0.553,��쓌,3.2,��
2022/09/05,08:30,0.594,0.827,0.526,1.017,0.722,0.336,0.588,0.554,��,2.9,��
2022/09/05,08:40,0.593,0.829,0.525,1.016,0.724,0.335,0.589,0.551,��쓌,2.5,��
2022/09/05,08:50,0.594,0.825,0.526,1.015,0.721,0.337,0.589,0.551,��쓌,1.9,��
2022/09/05,09:00,0.593,0.828,0.523,1.016,0.723,0.334,0.590,0.553,��,2.5,��
2022/09/05,09:10,0.594,0.828,0.526,1.019,0.721,0.336,0.589,0.552,�쓌,2.6,��
2022/09/05,09:20,0.595,0.828,0.525,1.018,0.722,0.337,0.588,0.551,�쓌,2.6,��
2022/09/05,09:30,0.594,0.828,0.526,1.017,0.724,0.337,0.589,0.552,��쓌,2.9,��
2022/09/05,09:40,0.591,0.830,0.524,1.017,0.723,0.335,0.589,0.552,�쓌,2.0,��
2022/09/05,09:50,0.589,0.828,0.525,1.018,0.721,0.336,0.588,0.552,�쓌,2.9,��
2022/09/05,10:00,0.589,0.828,0.523,1.016,0.723,0.335,0.590,0.552,���쓌,3.7,��
2022/09/05,10:10,0.589,0.830,0.523,1.016,0.721,0.336,0.591,0.552,��쓌,3.0,��
2022/09/05,10:20,0.588,0.830,0.523,1.018,0.723,0.336,0.589,0.553,�쓌,2.9,��
2022/09/05,10:30,0.590,0.831,0.525,1.018,0.723,0.338,0.589,0.552,��쓌,3.6,��
2022/09/05,10:40,0.592,0.832,0.525,1.017,0.723,0.336,0.588,0.553,��쓌,4.3,��
2022/09/05,10:50,0.596,0.826,0.527,1.015,0.722,0.336,0.589,0.552,��쓌,4.0,��
2022/09/05,11:00,0.597,0.817,0.525,1.017,0.723,0.337,0.589,0.553,��쓌,4.8,��
2022/09/05,11:10,0.596,0.822,0.528,1.019,0.725,0.338,0.591,0.553,��쓌,3.9,��
2022/09/05,11:20,0.596,0.832,0.527,1.017,0.724,0.337,0.591,0.553,��쓌,3.5,��
2022/09/05,11:30,0.596,0.831,0.526,1.017,0.725,0.337,0.589,0.552,��쓌,3.8,��
2022/09/05,11:40,0.595,0.834,0.528,1.017,0.725,0.337,0.590,0.552,��쓌,4.0,��
2022/09/05,11:50,0.596,0.833,0.527,1.018,0.726,0.336,0.590,0.552,��쓌,3.9,��
2022/09/05,12:00,0.596,0.834,0.527,1.016,0.726,0.336,0.590,0.551,�쓌,3.3,��
2022/09/05,12:10,0.595,0.835,0.529,1.019,0.727,0.338,0.590,0.552,�쓌,3.4,��
2022/09/05,12:20,0.597,0.834,0.528,1.018,0.725,0.338,0.591,0.553,��쓌,3.8,��
2022/09/05,12:30,0.596,0.837,0.528,1.019,0.727,0.337,0.590,0.554,��쓌,3.7,��
2022/09/05,12:40,0.597,0.835,0.527,1.020,0.724,0.337,0.590,0.552,��쓌,3.3,��
2022/09/05,12:50,0.596,0.836,0.528,1.020,0.727,0.336,0.591,0.553,��쓌,3.7,��
2022/09/05,13:00,0.597,0.835,0.527,1.018,0.725,0.337,0.591,0.553,�쓌,3.2,��
2022/09/05,13:10,0.597,0.834,0.528,1.019,0.726,0.337,0.592,0.552,�쓌,3.3,��
2022/09/05,13:20,0.597,0.833,0.529,1.018,0.730,0.337,0.591,0.553,��쓌,3.7,��
2022/09/05,13:30,0.597,0.831,0.528,1.021,0.726,0.337,0.592,0.552,�쓌,3.0,��
2022/09/05,13:40,0.598,0.833,0.530,1.022,0.725,0.338,0.592,0.551,�쓌,3.5,��
2022/09/05,13:50,0.594,0.833,0.528,1.020,0.726,0.337,0.591,0.554,�쓌,3.2,��
2022/09/05,14:00,0.595,0.833,0.527,1.020,0.727,0.337,0.591,0.553,��쓌,3.3,��
2022/09/05,14:10,0.595,0.833,0.529,1.021,0.727,0.338,0.591,0.553,�쓌,4.1,��
2022/09/05,14:20,0.595,0.834,0.529,1.021,0.726,0.337,0.590,0.552,�쓌,3.3,��
2022/09/05,14:30,0.594,0.835,0.530,1.020,0.727,0.335,0.591,0.552,��쓌,3.6,��
2022/09/05,14:40,0.596,0.834,0.529,1.020,0.728,0.335,0.591,0.551,�쓌,2.6,��
2022/09/05,14:50,0.593,0.833,0.529,1.019,0.727,0.337,0.592,0.553,�쓌,2.6,��
2022/09/05,15:00,0.593,0.835,0.528,1.021,0.725,0.337,0.591,0.552,��쓌,2.6,��
2022/09/05,15:10,0.592,0.834,0.529,1.022,0.728,0.336,0.590,0.553,�쓌,3.9,��
2022/09/05,15:20,0.593,0.835,0.528,1.021,0.727,0.337,0.589,0.552,�쓌,3.1,��
2022/09/05,15:30,0.594,0.837,0.528,1.022,0.727,0.338,0.590,0.553,��쓌,3.8,��
2022/09/05,15:40,0.596,0.835,0.530,1.019,0.728,0.339,0.589,0.552,��쓌,3.3,��
2022/09/05,15:50,0.597,0.837,0.530,1.024,0.728,0.337,0.590,0.553,��쓌,3.5,��
2022/09/05,16:00,0.595,0.838,0.529,1.023,0.728,0.338,0.591,0.553,��쓌,3.7,��
2022/09/05,16:10,0.600,0.837,0.531,1.022,0.728,0.337,0.590,0.554,��쓌,4.6,��
2022/09/05,16:20,0.597,0.838,0.529,1.023,0.727,0.339,0.589,0.555,��쓌,4.2,��
2022/09/05,16:30,0.596,0.837,0.529,1.022,0.726,0.338,0.591,0.553,��쓌,4.5,��
2022/09/05,16:40,0.598,0.836,0.529,1.021,0.727,0.339,0.589,0.552,��쓌,4.2,��
2022/09/05,16:50,0.597,0.836,0.529,1.024,0.727,0.338,0.590,0.553,��쓌,4.1,��
2022/09/05,17:00,0.598,0.838,0.530,1.020,0.728,0.338,0.589,0.554,��쓌,4.7,��
2022/09/05,17:10,0.597,0.837,0.529,1.022,0.728,0.338,0.590,0.555,��쓌,4.3,��
2022/09/05,17:20,0.596,0.836,0.529,1.021,0.728,0.338,0.592,0.555,��쓌,4.0,��
2022/09/05,17:30,0.599,0.839,0.530,1.021,0.728,0.337,0.591,0.557,��쓌,4.3,��
2022/09/05,17:40,0.599,0.836,0.530,1.023,0.728,0.337,0.589,0.555,��쓌,3.7,��
2022/09/05,17:50,0.597,0.839,0.531,1.021,0.728,0.338,0.591,0.556,��,3.5,��
2022/09/05,18:00,0.598,0.840,0.530,1.024,0.729,0.337,0.593,0.557,��,3.6,��
2022/09/05,18:10,0.600,0.840,0.531,1.023,0.730,0.338,0.592,0.555,��쓌,3.9,��
2022/09/05,18:20,0.598,0.839,0.531,1.021,0.728,0.338,0.591,0.556,��,4.9,��
2022/09/05,18:30,0.597,0.838,0.531,1.024,0.730,0.338,0.592,0.556,��,4.4,��
2022/09/05,18:40,0.598,0.838,0.530,1.023,0.729,0.338,0.591,0.557,��쓌,5.1,��
2022/09/05,18:50,0.596,0.840,0.530,1.025,0.729,0.338,0.591,0.556,��,5.0,��
2022/09/05,19:00,0.597,0.837,0.529,1.022,0.730,0.338,0.592,0.555,��,5.4,��
2022/09/05,19:10,0.597,0.840,0.529,1.022,0.727,0.338,0.590,0.554,��,5.6,��
2022/09/05,19:20,0.597,0.840,0.530,1.021,0.729,0.336,0.591,0.555,��쓌,4.2,��
2022/09/05,19:30,0.598,0.841,0.530,1.024,0.728,0.337,0.591,0.556,��,4.3,��
2022/09/05,19:40,0.598,0.840,0.531,1.023,0.729,0.338,0.592,0.556,��쓌,2.9,��
2022/09/05,19:50,0.598,0.840,0.529,1.021,0.729,0.339,0.591,0.557,��쓌,3.0,��
2022/09/05,20:00,0.598,0.840,0.531,1.022,0.729,0.338,0.591,0.555,��쓌,3.2,��
2022/09/05,20:10,0.595,0.839,0.531,1.022,0.729,0.337,0.591,0.557,��쓌,4.5,��
2022/09/05,20:20,0.597,0.839,0.532,1.024,0.731,0.340,0.591,0.555,��쓌,4.7,��
2022/09/05,20:30,0.597,0.839,0.529,1.022,0.730,0.340,0.591,0.556,��,4.7,��
2022/09/05,20:40,0.597,0.840,0.530,1.023,0.730,0.338,0.591,0.556,��,4.8,��
2022/09/05,20:50,0.596,0.841,0.530,1.023,0.730,0.339,0.591,0.555,��,4.9,��
2022/09/05,21:00,0.597,0.840,0.530,1.022,0.732,0.338,0.591,0.555,��,4.6,��
2022/09/05,21:10,0.600,0.838,0.530,1.023,0.731,0.338,0.590,0.555,��,4.1,��
2022/09/05,21:20,0.598,0.841,0.530,1.023,0.730,0.338,0.591,0.554,��쐼,4.2,��
2022/09/05,21:30,0.598,0.840,0.532,1.022,0.731,0.338,0.591,0.555,��,4.3,��
2022/09/05,21:40,0.597,0.840,0.531,1.023,0.730,0.338,0.591,0.557,��,4.7,��
2022/09/05,21:50,0.599,0.841,0.530,1.023,0.730,0.339,0.591,0.555,��,4.3,��
2022/09/05,22:00,0.597,0.841,0.532,1.024,0.730,0.340,0.590,0.555,��,4.5,��
2022/09/05,22:10,0.599,0.839,0.531,1.024,0.730,0.339,0.589,0.555,��,4.9,��
2022/09/05,22:20,0.598,0.839,0.532,1.022,0.729,0.338,0.591,0.556,��,6.2,��
2022/09/05,22:30,0.598,0.840,0.529,1.022,0.731,0.339,0.590,0.556,��,4.7,��
2022/09/05,22:40,0.598,0.840,0.532,1.024,0.733,0.340,0.590,0.557,��쐼,1.2,��
2022/09/05,22:50,0.599,0.841,0.532,1.024,0.732,0.339,0.592,0.556,-,CALM,��
2022/09/05,23:00,0.598,0.841,0.531,1.020,0.730,0.339,0.590,0.557,��,2.8,��
2022/09/05,23:10,0.599,0.841,0.530,1.022,0.729,0.339,0.592,0.556,��,4.6,��
2022/09/05,23:20,0.599,0.841,0.530,1.024,0.731,0.339,0.591,0.556,��,5.0,��
2022/09/05,23:30,0.597,0.841,0.530,1.024,0.732,0.340,0.592,0.556,��,5.4,�L
2022/09/05,23:40,0.597,0.843,0.531,1.022,0.730,0.340,0.590,0.555,��,5.4,�L
2022/09/05,23:50,0.599,0.842,0.531,1.023,0.732,0.339,0.591,0.556,��,5.1,��
